Content
SEND FEEDBACK

Daily
Averages
Monthly
Summary
Mexico

PUEBLA - JARDINES DE SAN MANUEL, PUEBLA


Home > North America > Mexico > Puebla
Elevation: 6962 feet     Latitude: 19 00N     Longitude: 098 11W

WEATHER
 
SELECT A DAY
Number of Records: 120,875;   Date Range: 1/1/95 - 7/23/14
 
SHARE

PRINT THIS DATA

[ ← Previous Day ]
WEATHER ALMANAC - MARCH 4, 2013
[ Next Day → ]
[ °C ]   °F
Weather ElementAverageHighLow
Temperature55.7 °F75 °F (2:40 pm)30.2 °F (5:46 am)
Dewpoint10.7 °F24 °F (5:59 am)-2.2 °F (2:41 pm)
Humidity18.7 %54 % (8:50 am)5 % (2:41 pm)
Barometer30.21 in30.39 in (9:42 am)29.75 in (5:40 pm)
Wind Speed6.7 mph18.4 mph (4:41 pm)
Weather ElementAverage
Visibility7.2 mi
Wind DirectionSSE (171.3 °)

Weather ElementTotal
Precipitation---
Heating Degree Days12.4 (Base 65)
Growing Degree Days2.6 (Base 50)
Averaged from 26 records on March 4, 2013
WEATHER CONDITIONS BREAKOUT
WIND DIRECTION BREAKOUT
WEATHER BY HOUR - MARCH 4, 2013
[ °C ]   °F
Local TimeTemperatureDewpointHumidityBarometerVisibilityWind DirectionWind SpeedGust SpeedPrecipitationEventsConditions
5:46 AM30.2 °F10.4 °F44 %30.35 in8.0 miNW (320°)9.2 mphClear
5:59 AM36.0 °F24.0 °F48 %30.09 in3.0 miCalm
6:40 AM30.2 °F10.4 °F44 %30.36 in8.0 miNNW (340°)9.2 mphClear
7:41 AM35.6 °F10.4 °F35 %30.37 in8.0 miNNW (340°)6.9 mphClear
8:41 AM46.4 °F12.2 °F25 %30.38 in8.0 miNorth (360°)8.1 mphClear
8:50 AM34.0 °F24.0 °F54 %30.19 in3.0 miCalmHaze
9:42 AM57.2 °F8.6 °F14 %30.39 in8.0 miNNE (20°)6.9 mphClear
10:40 AM64.4 °F8.6 °F11 %30.36 in7.0 miNNE (30°)8.1 mphClear
11:40 AM69.0 °F24.0 °F9 %30.10 in6.0 miNorth6.7 mphHaze
11:44 AM66.2 °F1.4 °F8 %30.33 in8.0 miNNE (30°)11.5 mphClear
12:41 PM68.0 °F3.2 °F8 %30.29 in8.0 miSE (140°)6.9 mphClear
1:40 PM71.6 °F-0.4 °F6 %30.25 in9.0 miSouth (170°)5.8 mphClear
2:40 PM75.0 °F23.0 °F7 %29.87 in6.0 miSSE (160°)4.5 mphHaze
2:41 PM73.4 °F-2.2 °F5 %30.22 in9.0 miSSE (150°)3.5 mphClear
3:43 PM71.6 °F6.8 °F8 %30.20 in9.0 miSouth (190°)10.4 mphClear
4:41 PM69.8 °F6.8 °F9 %30.21 in9.0 miSouth (190°)18.4 mphClear
5:40 PM69.0 °F17.0 °F6 %29.75 in6.0 miSSE (160°)4.5 mphHaze
5:42 PM66.2 °F6.8 °F10 %30.23 in9.0 miSouth (180°)15.0 mphClear
6:42 PM57.2 °F6.8 °F13 %30.24 in9.0 miSouth (180°)12.7 mphClear
7:40 PM53.6 °F5.0 °F14 %30.27 in8.0 miSouth (190°)8.1 mphClear
8:40 PM50.0 °F8.6 °F19 %30.30 in8.0 miSouth (190°)5.8 mphClear
8:45 PM58.0 °F18.0 °F11 %29.75 in3.0 miEast (90°)2.2 mph
9:40 PM50.0 °F8.6 °F19 %30.33 in8.0 miNE (40°)2.3 mphClear
10:40 PM48.2 °F10.4 °F22 %30.34 in8.0 miWNW (300°)2.3 mphClear
11:44 PM46.4 °F8.6 °F22 %30.34 in8.0 miWNW (300°)3.5 mphClear
11:45 PM50.0 °F18.0 °F16 %29.83 in3.0 miNE (40°)2.2 mph
Hourly data recorded from MMPB, located miles away from Puebla - Jardines de San Manuel, Puebla







STORIES FROM OUR PARTNERS